Date,TemperatureHighF,TemperatureAvgF,TemperatureLowF,DewpointHighF,DewpointAvgF,DewpointLowF,HumidityHigh,HumidityAvg,HumidityLow,PressureMaxIn,PressureMinIn,WindSpeedMaxMPH,WindSpeedAvgMPH,GustSpeedMaxMPH,PrecipitationSumIn
2013-1-1,62,48,33,35,26,17,86,50,23,30.12,29.98,2,0,0,0.00
2013-1-2,69,57,47,25,20,16,33,24,18,30.06,29.91,2,0,0,0.00
2013-1-6,47,45,42,42,40,37,88,85,84,29.93,29.91,0,0,0,0.00
2013-1-7,67,49,35,43,35,30,88,62,31,30.01,29.89,0,0,0,0.00
2013-1-8,80,60,43,43,36,29,67,44,26,29.98,29.89,1,0,0,0.00
2013-1-9,70,58,49,51,42,36,90,59,31,29.97,29.87,0,0,0,0.00
2013-1-10,60,50,39,47,35,22,88,60,27,29.99,29.79,2,0,0,0.00
2013-1-11,56,42,32,29,25,20,70,52,32,30.08,29.93,1,0,0,0.00
2013-1-12,58,43,32,28,24,21,69,48,26,30.05,29.95,1,0,0,0.00
2013-1-13,57,43,29,26,22,11,70,46,24,30.06,29.93,2,0,0,0.00
2013-1-14,55,44,37,15,10,8,32,25,18,30.24,30.06,2,0,0,0.00
2013-1-15,65,50,33,26,18,8,49,29,22,30.32,30.19,2,0,0,0.00
2013-1-16,58,57,56,27,26,25,32,30,28,30.23,30.19,1,0,0,0.00
2013-1-20,71,67,61,23,11,-100,21,14,14,29.97,29.93,1,0,0,0.00
2013-1-21,81,66,52,23,19,14,27,17,10,29.99,29.88,3,0,0,0.00
2013-1-22,82,60,47,29,22,17,35,24,12,29.98,29.87,1,0,0,0.00
2013-1-23,75,60,50,48,33,23,77,37,25,30.00,29.88,1,0,0,0.00
2013-1-24,60,55,51,58,53,47,96,92,80,30.06,29.96,0,0,0,0.00
2013-1-25,62,58,55,55,52,49,93,82,62,30.01,29.84,1,0,0,0.00
2013-1-26,71,59,53,59,54,51,97,85,59,29.86,29.75,1,0,0,0.00
2013-1-27,65,54,46,51,43,26,94,69,37,29.91,29.80,1,0,0,0.00
2013-1-28,61,48,38,36,32,27,76,55,35,30.07,29.90,1,0,0,0.00
2013-1-29,61,47,37,41,35,30,80,63,38,30.10,30.01,1,0,0,0.00
2013-1-30,74,53,39,46,39,35,86,62,28,30.21,30.09,1,0,0,0.00
2013-1-31,58,53,44,40,38,37,76,58,50,30.06,29.99,0,0,0,0.00
2013-2-1,81,59,45,49,42,36,74,55,27,30.05,29.97,1,0,0,0.00
2013-2-2,75,62,53,51,44,39,78,55,28,30.07,29.98,1,0,0,0.00
2013-2-3,76,60,48,49,45,40,83,60,34,30.02,29.86,2,0,0,0.00
2013-2-4,74,55,43,52,42,35,82,64,36,29.96,29.85,1,0,0,0.00
2013-2-5,63,51,40,50,45,36,91,81,63,29.96,29.85,1,0,0,0.00
2013-2-6,67,54,44,49,45,40,92,75,46,29.98,29.87,1,0,0,0.00
2013-2-7,62,49,37,47,41,34,90,75,50,30.01,29.84,2,0,0,0.00
2013-2-8,54,45,37,43,38,34,90,76,53,29.84,29.73,2,0,0,0.00
2013-2-9,61,45,32,39,33,29,91,68,36,29.98,29.81,1,0,0,0.00
2013-2-10,59,46,34,41,36,30,87,70,45,29.98,29.88,2,0,0,0.00
2013-2-11,65,48,33,37,30,24,89,57,22,30.12,29.95,2,0,0,0.00
2013-2-12,67,49,34,37,28,22,67,48,18,30.23,30.10,2,0,0,0.00
2013-2-13,77,53,37,42,34,29,74,52,19,30.15,30.01,2,0,0,0.00
2013-2-14,68,55,50,40,35,30,56,48,27,30.03,29.99,1,0,0,0.00
2013-2-15,81,70,63,33,29,23,30,22,15,30.09,29.99,3,1,0,0.00
2013-2-16,84,68,52,32,27,22,38,22,14,30.04,29.84,2,0,0,0.00
2013-2-17,71,54,40,49,36,25,85,52,26,29.89,29.77,1,0,0,0.00
2013-2-18,65,51,41,47,43,37,89,75,48,29.93,29.80,2,0,0,0.00
2013-2-19,53,48,43,45,43,40,93,81,63,29.85,29.59,2,0,0,0.00
2013-2-20,62,46,33,40,32,25,93,62,25,29.87,29.59,1,0,0,0.00
2013-2-21,62,47,35,40,32,26,76,56,36,29.98,29.84,2,0,0,0.00
2013-2-22,68,50,35,38,32,27,74,52,26,30.07,29.98,2,0,0,0.00
2013-2-23,67,52,36,48,35,23,76,56,28,30.04,29.78,2,0,0,0.00
2013-2-24,67,56,44,31,21,15,42,27,16,30.08,29.88,2,0,0,0.00
2013-2-25,69,52,38,35,24,14,60,36,18,30.10,29.93,2,0,0,0.00
2013-2-26,78,56,39,35,28,19,62,37,16,30.01,29.83,3,0,0,0.00
2013-2-27,76,63,52,27,22,16,34,21,15,30.15,30.01,2,0,0,0.00
2013-2-28,82,58,42,35,27,22,51,32,13,30.19,30.09,2,0,0,0.00
2013-3-1,86,65,50,35,29,24,40,27,15,30.19,30.01,2,0,0,0.00
2013-3-2,85,64,47,45,34,28,66,35,16,30.08,29.93,2,0,0,0.00
2013-3-3,72,59,48,50,44,36,85,59,35,29.98,29.83,2,0,0,0.00
2013-3-4,70,54,43,51,45,40,92,73,44,29.96,29.87,2,0,0,0.00
2013-3-5,65,53,43,50,46,40,91,78,58,30.00,29.88,2,0,0,0.00
2013-3-6,56,51,43,48,44,39,87,79,61,30.02,29.88,0,0,0,0.00
2013-3-7,61,53,46,47,44,38,90,73,45,29.88,29.71,1,0,0,0.00
2013-3-8,56,48,43,46,43,41,95,83,64,29.89,29.64,1,0,0,0.00
2013-3-9,67,53,41,46,42,35,92,68,43,30.09,29.88,1,0,0,0.00
2013-3-10,79,59,42,42,34,28,75,46,16,30.15,30.01,1,0,0,0.00
2013-3-11,78,60,46,44,37,30,64,46,23,30.05,29.91,1,0,0,0.00
2013-3-12,84,61,45,50,41,36,75,52,22,29.96,29.87,1,0,0,0.00
2013-3-13,94,67,50,53,42,34,69,44,16,29.97,29.87,2,0,0,0.00
2013-3-14,86,66,50,54,46,38,72,51,28,29.94,29.86,1,0,0,0.00
2013-3-15,81,62,50,56,48,43,81,63,39,29.88,29.79,2,0,0,0.00
2013-3-16,71,56,46,55,49,44,94,77,55,29.85,29.73,2,0,0,0.00
2013-3-17,75,57,44,54,48,42,95,75,38,29.87,29.77,1,0,0,0.00
2013-3-18,65,53,46,52,47,43,93,81,62,29.96,29.84,1,0,0,0.00
2013-3-19,73,57,45,53,48,42,93,74,46,29.98,29.89,2,0,0,0.00
2013-3-20,72,60,50,55,50,46,89,72,50,29.96,29.81,1,0,0,0.00
2013-3-21,77,61,48,52,48,30,87,66,32,29.82,29.66,2,0,0,0.00
2013-3-22,78,62,46,45,36,28,70,41,21,29.77,29.65,2,0,0,0.00
2013-3-23,77,58,44,51,35,18,76,44,22,29.87,29.76,2,0,0,0.00
2013-3-24,81,59,41,48,38,29,75,50,21,29.89,29.75,2,0,0,0.00
2013-3-25,77,60,46,50,40,33,67,50,29,29.83,29.75,1,0,0,0.00
2013-3-26,73,57,44,53,44,37,79,63,43,29.83,29.76,2,0,0,0.00
2013-3-27,71,56,45,53,47,41,90,73,51,29.91,29.79,3,0,0,0.00
2013-3-28,75,57,45,55,48,42,92,74,47,29.95,29.87,2,0,0,0.00
2013-3-29,79,60,47,56,49,42,89,69,42,29.97,29.88,2,0,0,0.00
2013-3-30,75,58,52,52,47,-100,91,74,37,29.98,29.90,2,0,0,0.00
2013-3-31,65,57,53,58,52,47,92,83,67,29.98,29.91,2,0,0,0.00
2013-4-1,64,57,51,52,50,47,92,79,57,30.03,29.94,2,0,0,0.00
2013-4-2,73,58,45,54,48,43,94,72,45,29.97,29.85,2,0,0,0.00
2013-4-3,79,60,45,56,49,41,90,70,37,29.94,29.84,2,0,0,0.00
2013-4-4,76,60,52,57,53,48,92,78,51,29.97,29.85,1,0,0,0.00
2013-4-5,73,60,52,57,52,48,92,77,54,29.96,29.84,1,0,0,0.00
2013-4-6,76,60,48,56,51,45,94,74,48,29.96,29.80,1,0,0,0.00
2013-4-7,80,64,50,55,50,45,88,64,36,29.83,29.64,1,0,0,0.00
2013-4-8,71,59,51,49,41,32,86,55,26,29.69,29.52,3,1,0,0.00
2013-4-9,75,59,45,43,36,30,70,45,23,29.88,29.69,3,0,0,0.00
2013-4-10,83,64,49,41,33,25,58,34,15,29.98,29.83,3,0,0,0.00
2013-4-11,78,61,48,48,40,33,72,48,29,29.84,29.63,3,0,0,0.00
2013-4-12,75,58,48,55,48,42,88,71,50,29.73,29.65,1,0,0,0.00
2013-4-13,69,56,48,55,50,45,92,80,58,29.78,29.69,1,0,0,0.00
2013-4-14,60,56,54,53,51,49,92,82,70,29.75,29.68,1,0,0,0.00
2013-4-15,60,56,50,51,48,43,87,76,67,29.75,29.69,1,0,0,0.00
2013-4-16,66,56,43,44,38,24,84,55,27,29.87,29.73,2,0,0,0.00
2013-4-17,72,60,48,35,28,22,39,29,20,30.01,29.88,2,0,0,0.00
2013-4-18,82,64,50,32,24,19,37,24,13,30.10,29.96,2,0,0,0.00
2013-4-19,87,65,47,43,31,23,54,30,14,30.03,29.83,3,0,0,0.00
2013-4-20,94,68,51,54,42,31,60,42,15,29.85,29.73,1,0,0,0.00
2013-4-21,85,67,51,53,43,36,67,44,26,29.85,29.77,2,0,0,0.00
2013-4-22,77,60,49,55,50,43,89,71,45,29.87,29.74,2,0,0,0.00
2013-4-23,77,62,53,55,51,47,83,69,45,29.83,29.72,1,0,0,0.00
2013-4-24,65,58,52,55,52,46,89,80,66,29.86,29.76,1,0,0,0.00
2013-4-25,73,61,52,51,48,44,84,65,41,29.98,29.83,2,0,0,0.00
2013-4-26,79,62,46,54,48,41,86,63,40,30.02,29.95,1,0,0,0.00
2013-4-27,82,64,48,57,50,43,87,62,36,30.00,29.85,1,0,0,0.00
2013-4-28,81,62,49,59,52,46,92,72,46,29.86,29.71,2,0,0,0.00
2013-4-29,78,62,51,60,54,48,92,77,51,29.77,29.64,2,0,0,0.00
2013-4-30,71,61,55,55,53,50,90,77,57,29.76,29.67,2,0,0,0.00
2013-5-1,79,66,54,57,54,48,84,67,46,29.95,29.75,1,0,0,0.00
2013-5-2,93,72,49,48,28,17,92,32,8,30.03,29.87,2,0,0,0.00
2013-5-3,99,74,55,38,27,16,32,19,9,29.90,29.63,3,0,0,0.00
2013-5-4,81,65,51,56,44,29,81,48,27,29.69,29.57,2,0,0,0.00
2013-5-5,66,61,56,53,50,47,85,67,52,29.80,29.68,1,0,0,0.00
2013-5-6,66,59,55,56,52,49,95,79,56,29.88,29.74,1,0,0,0.00
2013-5-7,71,60,53,52,50,46,86,69,46,29.93,29.83,2,0,0,0.00
2013-5-8,72,61,52,52,49,46,87,67,48,29.96,29.92,3,0,0,0.00
2013-5-9,75,61,49,55,50,45,87,67,48,29.96,29.87,2,0,0,0.00
2013-5-10,84,65,51,59,51,-100,89,66,39,29.96,29.85,2,0,0,0.00
2013-5-11,88,68,52,61,54,-100,91,66,37,29.93,29.84,1,0,0,0.00
2013-5-12,98,76,55,61,55,48,81,52,24,29.91,29.77,2,0,0,0.00
2013-5-13,99,79,61,61,52,44,72,43,24,29.82,29.73,2,0,0,0.00
2013-5-14,82,64,52,57,52,47,91,67,39,29.85,29.75,2,0,0,0.00
2013-5-15,75,62,50,57,51,45,88,68,51,29.89,29.80,2,0,0,0.00
2013-5-16,73,56,50,57,34,-100,90,73,57,29.85,29.76,2,0,0,0.00
2013-5-17,74,62,53,56,49,-100,85,69,53,29.85,29.78,3,0,0,0.00
2013-5-18,77,63,49,56,50,45,89,65,42,29.90,29.82,2,0,0,0.00
2013-5-19,83,66,49,55,50,43,85,59,31,29.85,29.71,1,0,0,0.00
2013-5-20,95,69,52,59,50,37,79,54,15,29.80,29.73,1,0,0,0.00
2013-5-21,82,67,53,61,54,45,81,64,45,29.80,29.68,1,0,0,0.00
2013-5-22,76,64,53,57,52,46,86,67,51,29.70,29.62,3,0,0,0.00
2013-5-23,70,61,51,53,48,42,81,64,47,29.80,29.68,3,0,0,0.00
2013-5-24,73,60,48,54,47,41,80,63,47,29.85,29.77,3,0,0,0.00
2013-5-25,74,61,48,55,49,43,86,66,47,29.87,29.82,3,0,0,0.00
2013-5-26,74,61,49,55,49,43,85,65,48,29.90,29.85,3,0,0,0.00
2013-5-27,81,65,50,58,52,45,86,64,44,29.86,29.69,2,0,0,0.00
2013-5-28,85,68,54,59,54,48,85,62,39,29.74,29.59,2,0,0,0.00
2013-5-29,89,71,55,58,54,47,83,59,32,29.66,29.55,1,0,0,0.00
2013-5-30,84,68,52,59,54,47,86,62,39,29.72,29.62,2,0,0,0.00
2013-5-31,83,67,55,62,55,49,89,67,48,29.77,29.66,1,0,0,0.00
2013-6-1,91,70,54,65,57,49,90,67,41,29.72,29.57,1,0,0,0.00
2013-6-2,80,65,57,63,57,52,89,77,56,29.68,29.63,2,0,0,0.00
2013-6-3,80,68,59,60,57,53,86,71,46,29.76,29.65,2,0,0,0.00
2013-6-4,77,66,59,60,56,53,86,71,53,29.81,29.75,2,0,0,0.00
2013-6-28,95,88,69,66,63,59,70,45,37,29.78,29.72,2,1,0,0.00
2013-6-29,98,80,63,67,61,55,80,55,34,29.74,29.59,1,0,0,0.00
2013-6-30,94,81,70,64,62,58,75,54,34,29.67,29.55,1,0,0,0.00
2013-7-1,95,77,64,67,62,58,88,64,35,29.73,29.65,1,0,0,0.00
2013-7-2,87,74,63,67,61,56,83,64,46,29.83,29.73,2,0,0,0.00
2013-7-3,90,72,61,65,61,57,90,70,41,29.77,29.65,2,0,0,0.00
2013-7-4,66,63,61,61,58,57,91,87,81,29.69,29.65,0,0,0,0.00
2013-7-7,85,76,62,64,61,55,90,62,46,29.73,29.63,1,0,0,0.00
2013-7-8,72,61,56,58,54,51,88,79,62,29.79,29.72,0,0,0,0.00
2013-7-9,94,74,57,64,54,47,71,52,32,29.82,29.77,1,0,0,0.00
2013-7-10,88,70,60,64,56,-100,83,64,43,29.83,29.75,1,0,0,0.00
2013-7-11,81,72,66,66,62,59,81,73,59,29.82,29.74,0,0,0,0.00
2013-7-12,86,71,59,67,60,54,91,71,44,29.79,29.72,2,0,0,0.00
2013-7-13,88,70,57,63,58,53,92,68,37,29.83,29.71,2,0,0,0.00
2013-7-14,90,72,56,64,58,52,87,64,40,29.80,29.65,1,0,0,0.00
2013-7-15,87,69,58,60,56,52,84,65,37,29.73,29.66,2,0,0,0.00
2013-7-16,88,69,50,56,51,45,90,57,28,29.84,29.73,1,0,0,0.00
2013-7-17,90,71,54,57,48,40,68,48,18,29.88,29.80,2,0,0,0.00
2013-7-18,87,69,52,60,53,43,86,59,36,29.85,29.72,1,0,0,0.00
2013-7-19,67,59,55,56,51,48,82,74,68,29.77,29.72,0,0,0,0.00
2013-7-20,88,67,55,65,56,50,87,70,45,29.75,29.67,1,0,0,0.00
2013-7-21,69,66,65,62,61,60,85,83,78,29.80,29.74,0,0,0,0.00
2013-7-22,85,71,63,67,62,58,94,75,49,29.85,29.76,1,0,0,0.00
2013-7-23,85,70,61,64,59,56,91,70,42,29.89,29.79,2,0,0,0.00
2013-7-24,84,68,57,63,58,53,90,71,48,29.85,29.75,1,0,0,0.00
2013-7-25,83,65,57,64,57,52,91,77,49,29.88,29.79,1,0,0,0.00
2013-7-26,81,67,59,63,58,54,88,74,52,29.96,29.85,1,0,0,0.00
2013-7-27,84,69,57,64,58,53,90,69,46,29.88,29.73,1,0,0,0.00
2013-7-28,81,66,58,63,58,54,91,75,54,29.79,29.72,1,0,0,0.00
2013-7-29,82,66,59,62,57,52,88,75,49,29.89,29.78,1,0,0,0.00
2013-7-30,80,66,54,61,56,50,90,71,51,29.99,29.89,1,0,0,0.00
2013-7-31,79,64,54,60,55,49,90,75,51,29.98,29.86,1,0,0,0.00
2013-8-1,79,64,55,61,55,51,92,74,52,29.91,29.76,1,0,0,0.00
2013-8-2,80,64,53,61,55,49,90,73,51,29.83,29.76,1,0,0,0.00
2013-8-3,82,66,54,62,56,50,92,73,49,29.87,29.78,1,0,0,0.00
2013-8-4,83,66,53,61,55,50,92,71,42,29.88,29.79,1,0,0,0.00
2013-8-7,62,61,59,53,52,51,77,74,73,29.88,29.86,0,0,0,0.00
2013-8-8,81,65,51,61,53,47,92,69,45,29.86,29.77,1,0,0,0.00
2013-8-9,81,65,52,61,54,47,90,68,47,29.83,29.77,1,0,0,0.00
2013-8-10,79,65,51,60,54,46,88,68,50,29.89,29.81,0,0,0,0.00
2013-8-12,64,62,61,56,55,54,78,77,76,29.80,29.79,0,0,0,0.00
2013-8-13,86,68,55,63,55,-100,92,69,46,29.84,29.73,0,0,0,0.00
2013-8-14,91,69,54,64,57,50,91,69,40,29.79,29.68,0,0,0,0.00
2013-8-15,89,72,70,63,44,-100,71,49,41,29.77,29.73,1,0,0,0.00
2013-8-17,91,78,63,62,54,-100,81,49,31,29.80,29.67,1,0,0,0.00
2013-8-18,87,69,53,62,55,46,87,63,42,29.77,29.66,1,0,0,0.00
2013-8-19,87,65,59,65,48,-100,90,71,48,29.80,29.71,1,0,0,0.00
2013-8-20,90,68,59,64,56,-100,93,71,40,29.80,29.71,1,0,0,0.00
2013-8-21,89,69,54,61,54,47,80,61,32,29.79,29.70,1,0,0,0.00
2013-8-22,96,77,55,60,53,45,70,48,21,29.78,29.67,1,0,0,0.00
2013-8-23,92,72,56,59,50,40,68,48,28,29.73,29.59,1,0,0,0.00
2013-8-24,92,69,54,60,48,-100,72,52,27,29.73,29.61,1,0,0,0.00
2013-8-25,94,74,54,61,49,40,66,46,23,29.76,29.69,1,0,0,0.00
2013-8-28,95,86,68,65,59,53,61,42,28,29.75,29.66,1,0,0,0.00
2013-8-29,101,80,64,62,57,52,67,47,25,29.79,29.70,2,0,0,0.00
2013-8-30,101,84,72,70,61,52,57,46,35,29.81,29.74,2,0,0,0.00
2013-8-31,94,80,71,71,63,-100,74,59,45,29.82,29.72,2,0,0,0.00
2013-9-1,92,79,70,71,66,62,79,66,50,29.79,29.70,1,0,0,0.00
2013-9-2,92,77,66,69,65,61,87,68,45,29.78,29.66,1,0,0,0.00
2013-9-3,98,81,66,66,62,57,79,56,31,29.75,29.67,1,0,0,0.00
2013-9-4,98,81,66,65,60,54,68,51,31,29.77,29.67,2,0,0,0.00
2013-9-5,101,80,63,63,58,51,78,50,23,29.74,29.66,1,0,0,0.00
2013-9-6,103,81,67,61,55,49,64,44,23,29.73,29.63,1,0,0,0.00
2013-9-7,101,77,65,60,52,-100,74,46,22,29.72,29.64,1,0,0,0.00
2013-9-8,92,72,62,60,56,50,78,59,33,29.71,29.59,1,0,0,0.00
2013-9-9,83,68,58,62,57,53,86,69,45,29.68,29.59,1,0,0,0.00
2013-9-10,82,66,57,60,56,53,89,73,48,29.80,29.67,1,0,0,0.00
2013-9-11,82,67,57,61,57,52,90,72,48,29.87,29.78,1,0,0,0.00
2013-9-12,90,71,54,61,54,47,81,58,30,29.81,29.69,1,0,0,0.00
2013-9-13,67,66,65,53,52,51,60,60,60,29.56,29.55,0,0,0,0.00
2013-9-14,93,74,59,62,53,-100,75,52,34,29.58,29.49,1,0,0,0.00
2013-9-15,93,74,59,64,56,49,73,55,35,29.62,29.54,1,0,0,0.00
2013-9-16,95,76,57,61,54,45,68,49,27,29.68,29.59,1,0,0,0.00
2013-9-17,64,62,60,53,51,49,70,68,66,29.62,29.61,0,0,0,0.00
2013-9-18,66,59,55,56,50,47,80,74,66,29.65,29.61,0,0,0,0.00
2013-9-19,84,66,52,63,56,47,85,71,48,29.70,29.60,1,0,0,0.00
2013-9-20,77,66,60,62,58,55,88,78,58,29.75,29.68,1,0,0,0.00
2013-9-21,78,66,62,61,56,-100,88,75,52,29.78,29.65,1,0,0,0.00
2013-9-22,82,66,53,57,50,41,86,60,33,29.71,29.64,1,0,0,0.00
2013-9-23,98,75,58,52,43,38,49,35,17,29.74,29.68,1,0,0,0.00
2013-9-24,90,70,57,54,46,39,56,42,25,29.79,29.68,3,0,0,0.00
2013-9-25,78,66,54,59,50,44,73,57,46,29.70,29.54,2,0,0,0.00
2013-10-9,54,52,50,44,44,43,79,74,69,29.67,29.59,0,0,0,0.00
2013-10-10,70,55,42,51,44,37,84,68,44,29.90,29.67,2,0,0,0.00
2013-10-11,77,58,45,54,47,41,88,70,40,29.92,29.82,1,0,0,0.00
2013-10-12,80,59,47,53,44,-100,76,60,30,29.84,29.75,1,0,0,0.00
2013-10-13,73,58,46,54,47,40,83,69,48,29.90,29.80,1,0,0,0.00
2013-10-14,87,65,46,47,40,33,84,48,18,29.91,29.77,2,0,0,0.00
2013-10-15,87,71,59,38,35,31,40,27,17,29.83,29.73,1,0,0,0.00
2013-10-16,66,64,61,32,30,28,30,28,27,29.90,29.88,0,0,0,0.00
2013-10-17,83,63,48,45,35,28,51,36,20,29.91,29.78,1,0,0,0.00
2013-10-18,92,62,49,53,37,31,54,41,13,29.87,29.79,1,0,0,0.00
2013-10-19,92,66,53,51,36,-100,57,35,16,29.89,29.80,1,0,0,0.00
2013-10-20,84,62,48,56,43,29,78,51,30,29.85,29.75,1,0,0,0.00
2013-10-21,80,58,42,55,45,34,81,64,40,29.86,29.77,1,0,0,0.00
2013-10-22,80,59,45,57,47,35,83,66,42,29.86,29.77,1,0,0,0.00
2013-10-23,72,56,47,55,50,43,91,80,55,29.86,29.76,1,0,0,0.00
2013-10-24,74,62,55,55,53,49,83,73,51,29.91,29.81,1,0,0,0.00
2013-10-25,76,62,51,58,53,46,90,74,52,30.01,29.88,1,0,0,0.00
2013-10-26,87,62,47,58,43,-100,82,55,22,29.97,29.84,0,0,0,0.00
2013-10-27,78,61,50,57,44,30,84,56,34,29.85,29.67,1,0,0,0.00
2013-10-28,64,55,52,54,47,-100,89,77,52,29.80,29.64,2,0,0,0.00
2013-10-29,67,55,47,49,46,43,89,74,45,29.88,29.80,1,0,0,0.00
2013-10-30,77,56,43,47,43,38,86,65,28,29.95,29.84,1,0,0,0.00
2013-10-31,84,59,45,46,37,31,71,49,18,29.96,29.86,1,0,0,0.00
2013-11-1,89,64,50,40,33,29,47,34,16,29.96,29.81,1,0,0,0.00
2013-11-2,86,62,50,43,33,-100,50,37,18,29.86,29.72,1,0,0,0.00
2013-11-3,65,53,45,53,40,32,81,63,46,29.79,29.69,0,0,0,0.00
2013-11-4,73,60,50,52,48,37,81,65,43,29.83,29.67,2,0,0,0.00
2013-11-5,76,59,45,37,27,18,64,34,16,30.03,29.82,1,0,0,0.00
2013-11-6,72,65,62,25,21,18,22,18,16,30.07,30.01,0,0,0,0.00
2013-11-7,81,65,58,34,28,21,30,25,17,29.99,29.86,0,0,0,0.00
2013-11-8,80,58,48,51,32,24,53,38,20,29.89,29.78,0,0,0,0.00
2013-11-9,81,57,46,54,37,-100,73,51,25,29.95,29.85,1,0,0,0.00
2013-11-10,87,59,45,48,34,25,54,41,12,29.99,29.89,0,0,0,0.00
2013-11-11,81,58,45,48,35,26,56,42,25,30.00,29.89,1,0,0,0.00
2013-11-12,79,63,52,47,37,28,52,38,25,30.03,29.94,0,0,0,0.00
2013-11-13,86,67,57,38,32,28,34,27,18,29.96,29.78,0,0,0,0.00
2013-11-14,94,70,55,49,40,32,59,37,14,29.81,29.62,0,0,0,0.00
2013-11-15,72,58,47,54,46,34,77,64,49,29.63,29.52,1,0,0,0.00
2013-11-16,67,57,54,53,48,-100,87,75,60,29.80,29.61,1,0,0,0.00
2013-11-17,72,59,50,52,49,44,87,71,42,29.96,29.80,1,0,0,0.00
2013-11-18,70,54,44,52,46,40,88,75,51,30.03,29.92,1,0,0,0.00
2013-11-19,68,56,48,52,48,44,90,75,54,29.97,29.82,0,0,0,0.00
2013-11-20,66,57,51,56,50,45,93,78,59,29.85,29.73,0,0,0,0.00
2013-11-21,68,58,54,58,53,41,95,84,58,29.77,29.68,0,0,0,0.00
2013-11-22,62,55,52,41,39,36,58,53,45,29.88,29.75,1,0,0,0.00
2013-11-23,63,56,51,41,37,-100,62,53,42,29.98,29.86,1,0,0,0.00
2013-11-24,71,59,49,45,40,38,69,51,33,30.08,29.96,1,0,0,0.00
2013-11-25,80,58,43,44,39,35,75,53,23,30.11,30.00,1,0,0,0.00
2013-11-26,80,66,49,41,37,35,61,36,22,30.05,29.91,1,0,0,0.00
2013-11-27,77,64,51,43,40,37,63,43,26,29.92,29.73,1,0,0,0.00
2013-12-6,60,44,32,37,31,25,76,60,40,30.06,29.96,1,0,0,0.00
2013-12-7,55,42,36,48,34,-100,94,79,62,29.99,29.85,0,0,0,0.00
2013-12-8,58,43,33,33,27,20,76,54,29,30.11,29.98,0,0,0,0.00
2013-12-9,58,48,38,21,13,4,50,25,15,30.23,30.09,3,0,0,0.00
2013-12-10,57,51,49,15,10,6,25,19,16,30.18,29.99,0,0,0,0.00
2013-12-11,70,56,45,22,18,15,33,23,15,30.06,29.99,1,0,0,0.00
2013-12-12,75,54,44,39,28,20,57,38,17,30.06,29.98,1,0,0,0.00
2013-12-14,74,63,43,29,24,-100,47,24,18,30.20,30.08,1,0,0,0.00
2013-12-15,83,68,63,29,25,22,23,20,14,30.14,29.96,1,0,0,0.00
2013-12-16,87,68,61,32,28,25,29,23,14,30.00,29.93,2,0,0,0.00
2013-12-17,83,70,60,34,30,26,32,23,16,29.98,29.86,1,0,0,0.00
2013-12-18,72,62,51,51,41,30,87,51,27,29.87,29.71,1,0,0,0.00
2013-12-19,61,51,42,49,45,39,92,81,51,29.71,29.55,0,0,0,0.00
2013-12-20,68,52,40,40,34,29,89,56,28,29.82,29.68,1,0,0,0.00